Probability
0 0 0 0 0 0 0 0 0 0 0 0 0 0 0 0 0 0 0 0 0 0 0 0 0 0 0 0 0 0 0 0 0 0 0 0 0 0 0 0 1 2 3 3
0 0 0 0 0 0 0 0 0 0 0 0 0 0 0 0 0 0 0 0 0 0 0 0 0 0 0 0 0 0 0 0 0 0 0 0 0 0 0 0 1 2 3 3
0 0 0 0 0 0 0 0 0 0 0 0 0 0 0 0 0 0 0 0 0 0 0 0 0 0 0 0 0 0 0 0 0 0 0 0 0 0 0 0 0 1 1 2
0 0 0 0 0 0 0 0 0 0 0 0 0 0 0 0 0 0 0 0 0 0 0 0 0 0 0 0 0 0 0 0 0 0 0 0 0 0 0 0 0 0 0 1
0 0 0 0 0 0 0 0 0 0 0 0 0 0 0 0 0 0 0 0 0 0 0 0 0 0 0 0 0 0 0 0 0 0 0 0 0 0 0 0 0 0 0 0
0 0 0 0 0 0 0 0 0 0 0 0 0 0 0 0 0 0 0 0 0 0 0 0 0 0 0 0 0 0 0 0 0 0 0 0 0 0 0 0 0 0 0 0
0 0 0 0 0 0 0 0 0 0 0 0 0 0 0 0 0 0 0 0 0 0 0 0 0 0 0 0 0 0 0 0 0 0 0 0 0 0 0 0 0 0 0 0
0 0 0 0 0 0 0 0 0 0 0 0 0 0 0 0 0 0 0 0 0 0 0 0 0 0 0 0 0 0 0 0 0 0 0 0 0 0 0 0 0 0 0 0
0 0 0 0 0 0 0 0 0 0 0 0 0 0 0 0 0 0 0 0 0 0 0 0 0 0 0 0 0 0 0 0 0 0 0 0 0 0 0 0 0 0 0 0
0 0 0 0 0 0 0 0 0 0 0 0 0 0 0 0 0 0 0 0 0 0 0 0 0 0 0 0 0 0 0 0 0 0 0 0 0 0 0 0 0 0 0 0
0 0 0 0 0 0 0 0 0 0 0 0 0 0 0 0 0 0 0 0 0 0 0 0 0 0 0 0 0 0 0 0 0 0 0 0 0 0 0 0 0 0 0 0
0 0 0 0 0 0 0 0 0 0 0 0 0 0 0 0 0 0 0 0 0 0 0 0 0 0 0 0 0 0 0 0 0 0 0 0 0 0 0 0 0 0 0 0
0 0 0 0 0 0 0 0 0 0 0 0 0 0 0 0 0 0 0 0 0 0 0 0 0 0 0 0 0 0 0 0 0 0 0 0 0 0 0 0 0 0 0 0
0 0 0 0 0 0 0 0 0 0 0 0 0 0 0 0 0 0 0 0 0 0 0 0 0 0 0 0 0 0 0 0 0 0 0 0 0 0 0 0 0 0 0 0
0 0 0 0 0 0 0 0 0 0 0 0 0 0 0 0 0 0 0 0 0 0 0 0 0 0 0 0 0 0 0 0 0 0 0 0 0 0 0 0 0 0 0 0
0 0 0 0 0 0 0 0 0 0 0 0 0 0 0 0 0 0 0 0 0 0 0 0 0 0 0 0 0 0 0 0 0 0 0 0 0 0 0 0 0 0 0 0
0 0 0 0 0 0 0 0 0 0 0 0 0 0 0 0 0 0 0 0 0 0 0 0 0 0 0 0 0 0 0 0 0 0 0 0 0 0 0 0 0 0 0 0
0 0 0 0 0 0 0 0 0 0 0 0 0 0 0 0 0 0 0 0 0 0 0 0 0 0 0 0 0 0 0 0 0 0 0 0 0 0 0 0 0 0 0 0
0 0 0 0 0 0 0 0 0 0 0 0 0 0 0 0 0 0 0 0 0 0 0 0 0 0 0 0 0 0 0 0 0 0 0 0 0 0 0 0 0 0 0 0
0 0 0 0 0 0 0 0 0 0 0 0 0 0 0 0 0 0 0 0 0 0 0 0 0 0 0 0 0 0 0 0 0 0 0 0 0 0 0 0 0 0 0 0
0 0 0 0 0 0 0 0 0 0 0 0 0 0 0 0 0 0 0 0 0 0 0 0 0 0 0 0 0 0 0 0 0 0 0 0 0 0 0 0 0 0 0 0
0 0 0 0 0 0 0 0 0 0 0 0 0 0 0 0 0 0 0 0 0 0 0 0 0 0 0 0 0 0 0 0 0 0 0 0 0 0 0 0 0 0 0 0
0 0 0 0 0 0 0 0 0 0 0 0 0 0 0 0 0 0 0 0 0 0 0 0 0 0 0 0 0 0 0 0 0 0 0 0 0 0 0 0 0 0 0 0
0 0 0 0 0 0 0 0 0 0 0 0 0 0 0 0 0 0 0 0 0 0 0 0 0 0 0 0 0 0 0 0 0 0 0 0 0 0 0 0 0 0 0 0
0 0 0 0 0 0 0 0 0 0 0 0 0 0 0 0 0 0 0 0 0 0 0 0 0 0 0 0 0 0 0 0 0 0 0 0 0 0 0 0 0 0 0 0
0 0 0 0 0 0 0 0 0 0 0 0 0 0 0 0 0 0 0 0 0 0 0 0 0 0 0 0 0 0 0 0 0 0 0 0 0 0 0 0 0 0 0 0
0 0 0 0 0 0 0 0 0 0 0 0 0 0 0 0 0 0 0 0 0 0 0 0 0 0 0 0 0 0 0 0 0 0 0 0 0 0 0 0 0 0 0 0
Wind_Speed
8 7 5 8 9 10 11 11 10 10 11 12 9 8 8 7 7 7 7 7 7 8 8 7 8 7 7 7 7 7 7 7 8 8 7 7 7 6 6 6 7 7 8 8
6 5 5 9 12 12 13 12 14 14 15 10 8 7 7 7 7 7 8 8 8 8 8 8 8 8 8 8 7 7 8 8 8 8 7 7 7 7 6 6 6 7 7 8
5 3 5 10 10 12 9 9 9 12 10 5 6 7 8 8 7 8 8 8 8 9 8 8 8 8 8 8 8 7 8 8 8 8 8 7 7 6 6 6 7 7 7 8
4 3 9 2 2 5 8 8 9 9 8 7 8 9 8 7 7 8 8 8 8 8 8 8 8 8 8 7 7 7 8 8 8 7 8 7 7 7 7 6 6 6 7 7
3 6 9 4 3 4 6 7 7 9 9 8 7 8 6 3 4 6 7 8 7 7 8 8 7 7 7 7 7 7 8 8 8 8 8 7 7 7 7 6 6 7 6 7
4 6 8 2 2 1 3 6 3 6 7 5 4 6 5 3 5 7 7 6 6 7 7 7 7 7 7 7 7 8 8 8 8 8 8 8 8 7 7 6 7 6 6 6
8 8 9 1 3 4 5 3 0 3 5 4 5 6 6 6 7 7 7 7 6 6 6 6 7 6 7 8 8 8 8 8 8 7 7 8 7 6 6 6 7 6 6 6
6 8 8 5 6 7 4 2 1 3 4 5 6 6 7 7 7 7 7 7 6 6 6 6 6 6 7 8 8 8 8 8 8 8 7 6 6 6 6 6 7 6 6 6
8 7 1 7 6 4 2 3 4 4 4 5 6 7 7 7 7 7 7 6 6 6 7 7 6 6 8 8 8 8 8 8 7 7 7 6 6 7 6 6 5 5 5 5
6 9 6 6 7 6 5 6 6 5 5 5 6 6 6 6 6 6 6 6 6 6 7 7 7 7 7 8 8 7 8 7 7 7 7 6 5 5 5 5 5 5 5 5
8 7 6 6 8 8 7 6 6 5 5 5 6 6 6 6 6 6 6 6 6 6 7 8 8 8 8 7 7 7 7 6 6 6 6 6 6 5 6 6 6 6 5 5
7 5 5 6 4 5 5 5 5 4 5 5 5 5 6 6 6 6 6 6 6 7 7 8 8 8 8 7 6 6 6 6 5 5 5 5 6 6 7 8 9 9 8 7
7 4 5 7 5 4 4 4 4 4 5 5 5 5 5 5 5 5 6 6 7 7 7 7 8 8 8 7 6 6 6 6 5 5 5 5 5 6 6 6 7 7 7 7
7 5 6 5 4 3 3 3 3 3 4 4 4 4 4 5 5 6 6 6 6 7 7 7 7 8 7 7 6 6 6 6 6 5 5 5 5 5 5 5 5 5 5 6
7 7 6 4 3 3 2 2 2 3 3 4 3 4 4 5 6 6 6 6 6 6 6 7 7 8 7 7 6 6 6 5 5 5 5 5 5 4 4 5 4 4 4 4
5 4 4 4 4 3 2 2 3 4 4 4 4 5 5 5 6 6 5 5 6 7 7 7 8 8 7 7 7 5 5 7 6 5 4 4 4 4 4 4 4 4 4 4
3 4 4 4 5 5 4 4 4 4 4 5 5 5 5 5 5 5 5 5 6 6 7 7 7 7 7 6 6 5 5 5 7 5 4 4 4 4 4 3 3 3 3 4
5 5 5 5 5 5 5 5 4 4 4 5 4 4 4 4 5 6 6 6 6 6 6 6 7 7 6 6 5 4 4 4 4 4 4 4 4 4 4 3 3 4 3 3
4 4 4 4 4 4 4 4 4 4 4 4 4 4 4 5 5 5 5 5 6 6 7 7 9 7 6 6 6 4 4 4 4 4 4 5 4 4 3 3 3 3 3 3
2 3 3 3 2 2 3 3 3 3 3 3 3 4 4 4 4 5 5 5 4 5 6 7 7 6 6 6 6 4 4 4 4 4 4 3 3 3 3 3 3 3 3 3
3 3 2 2 3 2 2 2 2 3 3 3 3 4 4 5 4 4 4 5 5 6 6 8 5 5 5 5 6 4 4 4 4 4 4 4 4 4 4 4 3 3 3 3
3 3 3 2 2 3 2 2 2 3 3 3 3 3 4 4 4 4 4 4 5 7 6 4 4 6 7 6 4 3 4 4 4 3 3 3 3 4 4 4 4 4 3 3
3 3 3 3 3 3 2 2 2 2 3 3 3 3 4 4 3 3 4 4 4 7 5 4 7 9 8 4 3 4 4 4 4 3 3 3 3 3 4 4 4 4 4 4
2 2 2 2 2 2 2 3 2 2 3 3 3 3 3 3 3 3 3 6 7 7 4 6 9 9 8 4 4 4 4 4 4 4 4 4 3 3 3 4 4 4 4 5
2 2 2 1 2 2 2 2 2 2 2 2 2 2 2 2 2 3 3 4 6 6 4 6 9 9 6 4 4 4 4 4 4 4 3 3 4 4 4 4 4 4 4 4
2 2 2 2 2 2 2 2 2 2 2 2 2 2 2 2 2 3 3 3 5 5 5 4 5 6 4 4 4 5 4 5 5 4 4 4 4 4 4 4 5 4 4 4
1 1 1 1 2 2 2 2 2 2 2 2 2 2 2 2 2 3 3 3 3 4 4 4 4 4 4 4 4 5 4 4 4 4 4 4 4 4 4 5 4 4 4 4
Wind_Direction
264 275 258 251 241 219 218 232 245 258 261 277 292 300 304 307 308 310 311 313 313 313 313 315 314 311 310 309 311 310 304 299 300 301 296 292 291 289 281 276 271 265 259 256
260 245 252 262 250 233 231 238 247 262 271 281 286 297 301 302 303 302 305 308 311 311 311 312 311 310 308 308 309 308 304 303 305 302 298 296 296 295 290 281 275 270 265 261
259 272 280 258 237 213 210 217 222 239 258 302 295 289 294 300 301 299 302 307 309 309 309 309 309 309 307 306 308 306 303 302 303 301 299 298 298 297 293 289 281 271 267 263
271 270 249 257 82 194 212 231 224 246 270 282 287 295 290 287 292 297 302 306 307 307 307 308 308 306 304 304 303 303 302 302 302 301 300 301 299 295 291 288 283 277 272 270
234 256 269 273 194 185 213 256 225 237 262 284 306 298 272 267 287 293 299 302 302 304 304 306 307 308 306 304 305 304 303 304 305 303 300 298 296 295 293 290 285 279 275 273
215 244 255 276 117 167 196 259 209 223 255 280 303 289 309 344 310 305 306 307 308 309 307 306 309 309 304 304 305 304 305 306 305 302 297 294 293 293 292 289 286 280 276 274
225 241 263 285 144 164 215 274 39 227 247 249 250 276 312 314 308 307 307 310 312 309 305 305 309 308 302 303 303 305 305 303 302 299 295 291 291 292 293 292 290 282 277 277
202 224 248 143 154 200 250 346 275 259 254 254 268 286 296 300 303 307 308 311 313 310 307 309 311 305 300 301 304 306 305 303 301 300 297 294 293 294 293 290 287 284 280 277
206 225 299 168 201 233 292 275 276 276 268 260 272 279 289 294 298 300 303 306 309 307 307 310 310 303 297 302 307 306 304 302 302 302 300 298 295 295 293 288 283 283 282 281
245 258 259 238 244 255 256 263 278 276 269 259 265 275 285 290 292 296 299 301 304 304 305 307 310 306 300 303 305 301 301 303 303 302 302 301 295 291 288 286 283 280 278 279
252 271 286 255 243 256 265 269 272 275 266 257 260 271 278 285 289 292 296 298 297 296 298 302 307 306 307 306 303 300 299 300 301 300 301 300 296 293 291 284 286 283 277 276
244 244 243 269 274 270 257 257 258 265 274 270 258 265 276 281 284 289 293 297 297 297 299 302 306 306 308 306 299 296 298 300 299 299 298 297 298 296 293 292 299 294 289 285
256 276 265 278 288 278 267 269 266 261 264 270 269 269 273 281 284 289 291 294 295 296 297 300 303 305 308 307 299 293 292 296 296 296 297 298 298 299 303 306 307 309 301 294
258 266 269 268 276 289 288 287 283 277 275 272 272 274 276 280 285 287 290 293 295 295 296 299 302 304 310 309 302 295 293 294 295 294 295 296 297 297 300 305 311 312 314 316
262 255 259 281 291 298 300 298 291 286 292 293 286 281 283 286 288 290 294 298 298 297 299 302 303 305 313 312 305 300 296 295 294 292 292 295 296 300 304 304 306 312 323 327
287 273 260 262 272 285 291 288 280 282 288 289 289 289 290 289 290 293 297 300 300 301 303 303 300 306 311 309 305 301 296 301 305 301 298 300 302 307 308 309 311 317 321 322
259 265 262 268 271 275 272 268 265 271 277 276 282 290 293 295 297 299 303 304 298 294 295 296 301 308 308 306 303 299 300 303 307 304 303 307 309 309 310 311 312 311 314 325
249 257 256 256 260 268 272 270 265 267 269 274 282 284 284 286 291 298 304 309 307 305 305 308 310 311 309 310 305 301 301 303 304 306 307 310 310 309 311 311 315 314 316 324
269 269 273 270 266 263 266 268 271 272 272 270 273 276 278 280 287 296 304 306 306 310 319 320 316 317 313 312 311 300 302 306 310 310 307 310 311 315 317 316 317 320 320 323
293 290 287 285 284 271 270 275 276 274 273 269 272 280 289 293 296 298 298 293 293 305 312 314 315 314 312 309 310 304 307 309 310 311 312 312 313 316 317 319 320 321 322 324
298 295 291 292 297 288 279 279 276 280 286 275 268 277 287 295 297 296 296 300 313 317 314 315 317 312 312 316 313 312 312 312 310 311 313 315 317 319 320 321 320 319 318 318
296 291 288 291 291 292 296 290 279 280 287 289 287 288 293 298 301 295 286 290 310 319 321 317 316 317 326 326 320 319 318 316 313 313 313 315 316 316 318 319 318 318 316 312
293 288 287 285 282 289 302 299 288 278 279 282 283 286 289 292 295 297 306 315 318 320 323 319 323 328 335 332 324 320 318 316 313 313 313 313 312 310 310 312 311 312 312 312
295 296 296 299 295 288 298 305 304 289 280 278 276 279 285 293 297 297 303 313 324 326 325 325 333 338 341 339 332 328 324 319 315 313 311 311 311 309 308 309 310 310 309 308
293 296 300 293 283 284 290 302 307 303 299 300 308 312 306 298 295 308 317 319 324 332 331 334 341 344 346 338 337 335 331 328 324 319 315 314 313 311 310 309 306 306 305 303
294 289 284 278 281 287 289 289 292 296 303 312 325 329 328 324 316 316 322 327 328 332 334 333 335 339 339 337 335 333 329 327 328 329 327 319 315 311 308 308 308 304 303 304
306 304 298 300 299 289 280 279 284 291 291 292 307 318 324 326 327 331 331 329 332 333 332 332 333 333 333 333 332 331 329 328 327 326 324 322 318 314 314 312 310 309 308 307